| time (UTC) | temp F | wind direction | speed MPH | gust MPH | rain 1hr in | rain 24hr in | rain mn in | humidity % | barometer mb |
| 20260505152917 | 52 | 66 | 2.0 | 7.0 | 0.00 | 0.38 | 0.01 | 93 | 1008.5 |
| 20260505151416 | 52 | 350 | 3.0 | 8.0 | 0.00 | 0.38 | 0.01 | 93 | 1008.5 |
| 20260505124404 | 51 | 32 | 2.0 | 7.0 | 0.00 | 0.38 | 0.01 | 96 | 1009.4 |
| 20260505121405 | 51 | 348 | 1.0 | 7.0 | 0.00 | 0.38 | 0.01 | 96 | 1009.4 |
| 20260505115901 | 51 | 47 | 2.0 | 9.0 | 0.00 | 0.38 | 0.01 | 97 | 1009.4 |
| 20260505114403 | 51 | 355 | 1.0 | 7.0 | 0.00 | 0.38 | 0.01 | 97 | 1009.7 |
| 20260505111401 | 51 | 5 | 1.0 | 6.0 | 0.00 | 0.38 | 0.01 | 97 | 1009.7 |
| 20260505101350 | 51 | 5 | 2.0 | 6.0 | 0.00 | 0.38 | 0.01 | 97 | 1009.9 |
| 20260505095848 | 51 | 355 | 1.0 | 5.0 | 0.00 | 0.38 | 0.01 | 97 | 1009.9 |
| 20260505094351 | 51 | 346 | 2.0 | 8.0 | 0.00 | 0.38 | 0.01 | 97 | 1009.9 |
| 20260505092848 | 51 | 344 | 1.0 | 8.0 | 0.00 | 0.38 | 0.01 | 97 | 1009.8 |
| 20260505091348 | 51 | 67 | 2.0 | 8.0 | 0.00 | 0.38 | 0.01 | 97 | 1009.9 |
| 20260505085840 | 51 | 27 | 2.0 | 6.0 | 0.00 | 0.38 | 0.01 | 97 | 1009.9 |
| 20260505084340 | 51 | 348 | 3.0 | 7.0 | 0.00 | 0.38 | 0.01 | 97 | 1009.9 |
| 20260505082840 | 51 | 348 | 1.0 | 6.0 | 0.00 | 0.38 | 0.01 | 97 | 1010.1 |
| 20260505081333 | 51 | 355 | 2.0 | 7.0 | 0.00 | 0.38 | 0.01 | 97 | 1009.9 |
| 20260505075832 | 51 | 345 | 2.0 | 6.0 | 0.00 | 0.38 | 0.01 | 97 | 1009.9 |
| 20260505074333 | 51 | 350 | 1.0 | 6.0 | 0.00 | 0.38 | 0.01 | 97 | 1009.8 |
| 20260505072833 | 51 | 328 | 1.0 | 6.0 | 0.00 | 0.38 | 0.01 | 97 | 1009.9 |
| 20260505071331 | 51 | 16 | 1.0 | 5.0 | 0.00 | 0.38 | 0.01 | 97 | 1009.9 |
| 20260505065833 | 51 | 355 | 1.0 | 9.0 | 0.00 | 0.38 | 0.01 | 97 | 1009.9 |
| 20260505064330 | 51 | 355 | 1.0 | 6.0 | 0.00 | 0.38 | 0.01 | 97 | 1009.9 |
| 20260505062833 | 51 | 11 | 2.0 | 6.0 | 0.00 | 0.38 | 0.01 | 97 | 1010.0 |
| 20260505061331 | 51 | 350 | 1.0 | 5.0 | 0.00 | 0.38 | 0.01 | 97 | 1010.1 |
| 20260505055831 | 52 | 342 | 1.0 | 7.0 | 0.00 | 0.38 | 0.01 | 97 | 1010.2 |
| 20260505054334 | 52 | 9 | 1.0 | 6.0 | 0.00 | 0.38 | 0.01 | 97 | 1010.0 |
| 20260505052832 | 52 | 338 | 1.0 | 6.0 | 0.00 | 0.38 | 0.01 | 97 | 1010.0 |
| 20260505051332 | 53 | 351 | 1.0 | 5.0 | 0.00 | 0.38 | 0.01 | 97 | 1009.8 |
| 20260505041329 | 53 | 9 | 1.0 | 5.0 | 0.00 | 0.39 | 0.01 | 97 | 1010.0 |
| 20260505035830 | 53 | 355 | 0.0 | 0.0 | 0.00 | 0.39 | 0.01 | 97 | 1010.1 |
| 20260505034325 | 53 | 355 | 0.0 | 4.0 | 0.00 | 0.39 | 0.01 | 96 | 1010.1 |
| 20260505032804 | 54 | 349 | 0.0 | 5.0 | 0.00 | 0.39 | 0.01 | 97 | 1010.2 |
| 20260505031306 | 54 | 13 | 0.0 | 5.0 | 0.00 | 0.39 | 0.01 | 97 | 1010.2 |
| 20260505024306 | 54 | 5 | 1.0 | 8.0 | 0.00 | 0.39 | 0.01 | 96 | 1010.3 |
| 20260505022805 | 55 | 9 | 2.0 | 5.0 | 0.00 | 0.39 | 0.01 | 96 | 1010.3 |
| 20260505021305 | 55 | 346 | 1.0 | 7.0 | 0.00 | 0.39 | 0.01 | 97 | 1010.3 |
| 20260505015805 | 55 | 349 | 1.0 | 7.0 | 0.00 | 0.39 | 0.01 | 96 | 1010.2 |
| 20260505014304 | 55 | 342 | 1.0 | 6.0 | 0.00 | 0.39 | 0.01 | 96 | 1010.4 |
| 20260505012802 | 55 | 10 | 0.0 | 2.0 | 0.00 | 0.39 | 0.01 | 96 | 1010.4 |
| 20260505011315 | 55 | 355 | 1.0 | 7.0 | 0.00 | 0.39 | 0.01 | 96 | 1010.5 |
| 20260505005802 | 56 | 355 | 1.0 | 4.0 | 0.01 | 0.39 | 0.01 | 96 | 1010.5 |
| 20260505004303 | 56 | 348 | 0.0 | 5.0 | 0.01 | 0.39 | 0.01 | 96 | 1010.6 |
| 20260505002804 | 56 | 331 | 0.0 | 0.0 | 0.01 | 0.39 | 0.01 | 96 | 1010.7 |
| 20260505001301 | 56 | 330 | 1.0 | 5.0 | 0.01 | 0.39 | 0.01 | 96 | 1010.7 |
| 20260504235801 | 56 | 292 | 0.0 | 0.0 | 0.00 | 0.38 | 0.00 | 96 | 1010.9 |
| 20260504234302 | 56 | 292 | 0.0 | 0.0 | 0.00 | 0.38 | 0.00 | 96 | 1010.9 |
| 20260504232802 | 56 | 292 | 0.0 | 0.0 | 0.00 | 0.38 | 0.00 | 96 | 1011.0 |
| 20260504231300 | 56 | 292 | 0.0 | 0.0 | 0.00 | 0.38 | 0.00 | 96 | 1011.0 |
| 20260504225754 | 57 | 292 | 0.0 | 0.0 | 0.00 | 0.38 | 0.00 | 96 | 1011.1 |
| 20260504222735 | 57 | 292 | 0.0 | 1.0 | 0.00 | 0.38 | 0.00 | 96 | 1011.5 |
| 20260504221237 | 57 | 292 | 0.0 | 0.0 | 0.00 | 0.38 | 0.00 | 96 | 1011.5 |
| 20260504215730 | 57 | 292 | 0.0 | 2.0 | 0.00 | 0.38 | 0.38 | 96 | 1011.6 |
| 20260504214231 | 57 | 292 | 0.0 | 3.0 | 0.00 | 0.38 | 0.38 | 96 | 1011.9 |
| 20260504211230 | 57 | 249 | 0.0 | 0.0 | 0.00 | 0.38 | 0.38 | 96 | 1011.9 |
| 20260504205730 | 57 | 249 | 0.0 | 0.0 | 0.00 | 0.38 | 0.38 | 96 | 1012.0 |
| 20260504202729 | 57 | 249 | 0.0 | 0.0 | 0.00 | 0.38 | 0.38 | 95 | 1012.0 |
| 20260504201229 | 57 | 249 | 0.0 | 0.0 | 0.00 | 0.38 | 0.38 | 95 | 1012.1 |
| 20260504195723 | 56 | 249 | 0.0 | 0.0 | 0.01 | 0.38 | 0.38 | 95 | 1012.0 |
| 20260504194203 | 56 | 249 | 0.0 | 0.0 | 0.04 | 0.38 | 0.38 | 95 | 1011.9 |
| 20260504192701 | 57 | 249 | 0.0 | 0.0 | 0.07 | 0.38 | 0.38 | 94 | 1011.8 |
| 20260504191155 | 57 | 248 | 0.0 | 0.0 | 0.12 | 0.38 | 0.38 | 94 | 1011.8 |
| 20260504185651 | 57 | 249 | 0.0 | 0.0 | 0.16 | 0.37 | 0.37 | 93 | 1011.7 |
| 20260504184150 | 57 | 249 | 0.0 | 0.0 | 0.25 | 0.35 | 0.34 | 93 | 1011.5 |
| 20260504182647 | 58 | 249 | 0.0 | 0.0 | 0.29 | 0.31 | 0.30 | 93 | 1011.7 |
| 20260504181133 | 58 | 249 | 0.0 | 0.0 | 0.25 | 0.27 | 0.26 | 91 | 1011.9 |
| 20260504175635 | 59 | 249 | 0.0 | 0.0 | 0.20 | 0.21 | 0.20 | 91 | 1011.9 |
| 20260504174134 | 60 | 221 | 0.0 | 0.0 | 0.08 | 0.10 | 0.08 | 88 | 1012.0 |
| 20260504172634 | 61 | 219 | 0.0 | 0.0 | 0.01 | 0.05 | 0.02 | 86 | 1011.7 |
| 20260504171131 | 62 | 220 | 0.0 | 0.0 | 0.00 | 0.07 | 0.01 | 81 | 1011.7 |